| time (UTC) | temp F | wind direction | speed knots | gust knots | rain 1hr in | rain 24hr in | rain mn in | humidity % | barometer mb |
| 20260504130516 | 55 | 0 | 0.0 | 4.3 | 0.00 | 0.00 | 0.00 | 54 | 1013.4 |
| 20260504110513 | 43 | 0 | 0.0 | 0.0 | 0.00 | 0.00 | 0.00 | 76 | 1013.4 |
| 20260504100512 | 42 | 0 | 0.0 | 0.0 | 0.00 | 0.00 | 0.00 | 71 | 1013.7 |
| 20260504081531 | 43 | 0 | 0.0 | 0.0 | 0.00 | 0.00 | 0.00 | 66 | 1013.9 |
| 20260504081012 | 43 | 0 | 0.0 | 0.0 | 0.00 | 0.00 | 0.00 | 65 | 1013.9 |
| 20260504080513 | 43 | 0 | 0.0 | 0.0 | 0.00 | 0.00 | 0.00 | 65 | 1014.0 |
| 20260504050516 | 46 | 0 | 0.0 | 0.0 | 0.00 | 0.00 | 0.00 | 61 | 1014.0 |
| 20260504045515 | 47 | 0 | 0.0 | 0.0 | 0.00 | 0.00 | 0.00 | 59 | 1014.0 |
| 20260504045015 | 46 | 0 | 0.0 | 0.0 | 0.00 | 0.00 | 0.00 | 59 | 1014.0 |
| 20260504044532 | 47 | 0 | 0.0 | 0.0 | 0.00 | 0.00 | 0.00 | 61 | 1014.0 |
| 20260504044015 | 47 | 0 | 0.0 | 0.0 | 0.00 | 0.00 | 0.00 | 58 | 1014.0 |
| 20260504043519 | 47 | 0 | 0.0 | 0.0 | 0.00 | 0.00 | 0.00 | 57 | 1014.0 |
| 20260504043031 | 48 | 0 | 0.0 | 0.0 | 0.00 | 0.00 | 0.00 | 57 | 1014.1 |
| 20260504042514 | 48 | 0 | 0.0 | 0.0 | 0.00 | 0.00 | 0.00 | 58 | 1014.1 |
| 20260504042044 | 48 | 0 | 0.0 | 0.0 | 0.00 | 0.00 | 0.00 | 57 | 1014.0 |
| 20260504041534 | 48 | 0 | 0.0 | 0.0 | 0.00 | 0.00 | 0.00 | 57 | 1014.1 |
| 20260504041013 | 48 | 0 | 0.0 | 0.0 | 0.00 | 0.00 | 0.00 | 58 | 1014.1 |
| 20260504040513 | 48 | 0 | 0.0 | 0.0 | 0.00 | 0.00 | 0.00 | 57 | 1014.0 |
| 20260504040033 | 48 | 0 | 0.0 | 0.0 | 0.00 | 0.00 | 0.00 | 55 | 1014.1 |
| 20260504035514 | 48 | 0 | 0.0 | 0.0 | 0.00 | 0.00 | 0.00 | 55 | 1014.1 |
| 20260504035013 | 49 | 0 | 0.0 | 0.0 | 0.00 | 0.00 | 0.00 | 56 | 1014.0 |
| 20260504034542 | 49 | 0 | 0.0 | 0.0 | 0.00 | 0.00 | 0.00 | 55 | 1014.0 |
| 20260504034012 | 48 | 0 | 0.0 | 0.0 | 0.00 | 0.00 | 0.00 | 55 | 1013.9 |
| 20260504033516 | 48 | 0 | 0.0 | 0.0 | 0.00 | 0.00 | 0.00 | 56 | 1013.8 |
| 20260504033033 | 48 | 0 | 0.0 | 0.0 | 0.00 | 0.00 | 0.00 | 56 | 1013.8 |
| 20260504032513 | 48 | 0 | 0.0 | 0.0 | 0.00 | 0.00 | 0.00 | 56 | 1013.8 |
| 20260504032015 | 47 | 0 | 0.0 | 0.0 | 0.00 | 0.00 | 0.00 | 57 | 1013.9 |
| 20260504031530 | 48 | 0 | 0.0 | 0.0 | 0.00 | 0.00 | 0.00 | 58 | 1013.9 |
| 20260504031012 | 48 | 0 | 0.0 | 0.0 | 0.00 | 0.00 | 0.00 | 58 | 1013.8 |
| 20260504030512 | 49 | 0 | 0.0 | 0.0 | 0.00 | 0.00 | 0.00 | 56 | 1013.8 |
| 20260504030038 | 50 | 0 | 0.0 | 0.0 | 0.00 | 0.00 | 0.00 | 53 | 1013.8 |
| 20260504025512 | 50 | 0 | 0.0 | 0.0 | 0.00 | 0.00 | 0.00 | 54 | 1013.8 |
| 20260504025013 | 50 | 0 | 0.0 | 0.0 | 0.00 | 0.00 | 0.00 | 54 | 1013.8 |
| 20260504024530 | 50 | 0 | 0.0 | 0.0 | 0.00 | 0.00 | 0.00 | 52 | 1013.8 |
| 20260504024017 | 50 | 0 | 0.0 | 0.0 | 0.00 | 0.00 | 0.00 | 52 | 1013.8 |
| 20260504023514 | 50 | 0 | 0.0 | 0.0 | 0.00 | 0.00 | 0.00 | 52 | 1013.8 |
| 20260504023030 | 50 | 0 | 0.0 | 0.0 | 0.00 | 0.00 | 0.00 | 53 | 1013.8 |
| 20260504022513 | 50 | 0 | 0.0 | 0.0 | 0.00 | 0.00 | 0.00 | 53 | 1013.8 |
| 20260504022011 | 50 | 0 | 0.0 | 0.0 | 0.00 | 0.00 | 0.00 | 52 | 1013.8 |
| 20260504021532 | 50 | 0 | 0.0 | 0.0 | 0.00 | 0.00 | 0.00 | 52 | 1013.8 |
| 20260504021013 | 50 | 0 | 0.0 | 0.0 | 0.00 | 0.00 | 0.00 | 52 | 1013.8 |
| 20260504020512 | 50 | 0 | 0.0 | 0.0 | 0.00 | 0.00 | 0.00 | 52 | 1013.8 |
| 20260504020038 | 51 | 0 | 0.0 | 0.0 | 0.00 | 0.00 | 0.00 | 53 | 1013.9 |
| 20260504015514 | 51 | 0 | 0.0 | 0.0 | 0.00 | 0.00 | 0.00 | 52 | 1013.8 |
| 20260504015017 | 51 | 0 | 0.0 | 0.0 | 0.00 | 0.00 | 0.00 | 50 | 1013.9 |
| 20260504014532 | 52 | 0 | 0.0 | 0.0 | 0.00 | 0.00 | 0.00 | 49 | 1013.8 |
| 20260504014014 | 52 | 0 | 0.0 | 0.0 | 0.00 | 0.00 | 0.00 | 49 | 1013.9 |
| 20260504013512 | 52 | 0 | 0.0 | 0.0 | 0.00 | 0.00 | 0.00 | 48 | 1013.8 |
| 20260504013029 | 52 | 0 | 0.0 | 0.0 | 0.00 | 0.00 | 0.00 | 48 | 1013.8 |
| 20260504012512 | 52 | 0 | 0.0 | 0.0 | 0.00 | 0.00 | 0.00 | 48 | 1013.7 |
| 20260504012012 | 53 | 0 | 0.0 | 0.0 | 0.00 | 0.00 | 0.00 | 47 | 1013.7 |
| 20260504011531 | 53 | 0 | 0.0 | 0.0 | 0.00 | 0.00 | 0.00 | 47 | 1013.6 |
| 20260504011011 | 53 | 0 | 0.0 | 0.0 | 0.00 | 0.00 | 0.00 | 46 | 1013.6 |
| 20260504010513 | 53 | 0 | 0.0 | 0.0 | 0.00 | 0.00 | 0.00 | 46 | 1013.5 |
| 20260504010030 | 53 | 0 | 0.0 | 0.0 | 0.00 | 0.00 | 0.00 | 46 | 1013.5 |
| 20260504005513 | 54 | 0 | 0.0 | 0.0 | 0.00 | 0.00 | 0.00 | 45 | 1013.5 |
| 20260504005013 | 54 | 0 | 0.0 | 0.0 | 0.00 | 0.00 | 0.00 | 45 | 1013.5 |
| 20260504004531 | 54 | 0 | 0.0 | 0.0 | 0.00 | 0.00 | 0.00 | 45 | 1013.5 |
| 20260504004015 | 54 | 0 | 0.0 | 0.0 | 0.00 | 0.00 | 0.00 | 44 | 1013.4 |
| 20260504003511 | 55 | 0 | 0.0 | 0.0 | 0.00 | 0.00 | 0.00 | 44 | 1013.4 |
| 20260504003030 | 55 | 0 | 0.0 | 0.0 | 0.00 | 0.00 | 0.00 | 43 | 1013.4 |
| 20260504002512 | 55 | 0 | 0.0 | 0.0 | 0.00 | 0.00 | 0.00 | 43 | 1013.3 |
| 20260504002013 | 55 | 0 | 0.0 | 0.0 | 0.00 | 0.00 | 0.00 | 43 | 1013.3 |
| 20260504001533 | 56 | 0 | 0.0 | 0.0 | 0.00 | 0.00 | 0.00 | 43 | 1013.2 |
| 20260504001013 | 56 | 0 | 0.0 | 0.0 | 0.00 | 0.00 | 0.00 | 42 | 1013.2 |
| 20260504000513 | 56 | 0 | 0.0 | 7.0 | 0.00 | 0.00 | 0.00 | 42 | 1013.0 |
| 20260504000033 | 56 | 0 | 0.0 | 7.0 | 0.00 | 0.00 | 0.00 | 42 | 1012.9 |
| 20260503235513 | 57 | 0 | 1.7 | 8.7 | 0.00 | 0.00 | 0.00 | 40 | 1012.8 |
| 20260503235010 | 57 | 0 | 0.9 | 8.7 | 0.00 | 0.00 | 0.00 | 41 | 1012.8 |
| 20260503234534 | 57 | 0 | 0.0 | 9.6 | 0.00 | 0.00 | 0.00 | 40 | 1012.8 |
| 20260503234013 | 58 | 300 | 2.6 | 9.6 | 0.00 | 0.00 | 0.00 | 40 | 1012.7 |
| 20260503233511 | 58 | 0 | 2.6 | 9.6 | 0.00 | 0.00 | 0.00 | 39 | 1012.7 |
| 20260503233033 | 58 | 0 | 2.6 | 10.4 | 0.00 | 0.00 | 0.00 | 39 | 1012.7 |
| 20260503232511 | 58 | 302 | 5.2 | 10.4 | 0.00 | 0.00 | 0.00 | 39 | 1012.7 |
| 20260503232012 | 58 | 328 | 6.1 | 13.9 | 0.00 | 0.00 | 0.00 | 39 | 1012.6 |
| 20260503231544 | 58 | 316 | 7.0 | 13.9 | 0.00 | 0.00 | 0.00 | 39 | 1012.6 |
| 20260503231013 | 58 | 314 | 8.7 | 13.9 | 0.00 | 0.00 | 0.00 | 38 | 1012.7 |
| 20260503230514 | 58 | 300 | 7.0 | 11.3 | 0.00 | 0.00 | 0.00 | 39 | 1012.6 |
| 20260503230030 | 58 | 297 | 7.0 | 11.3 | 0.00 | 0.00 | 0.00 | 39 | 1012.5 |
| 20260503225512 | 58 | 0 | 2.6 | 11.3 | 0.00 | 0.00 | 0.00 | 40 | 1012.5 |
| 20260503225013 | 58 | 318 | 5.2 | 11.3 | 0.00 | 0.00 | 0.00 | 39 | 1012.6 |
| 20260503224531 | 58 | 319 | 6.1 | 12.2 | 0.00 | 0.00 | 0.00 | 39 | 1012.5 |
| 20260503224014 | 58 | 308 | 7.8 | 13.9 | 0.00 | 0.00 | 0.00 | 39 | 1012.5 |
| 20260503223513 | 58 | 331 | 7.8 | 13.9 | 0.00 | 0.00 | 0.00 | 39 | 1012.5 |
| 20260503223030 | 58 | 324 | 8.7 | 13.9 | 0.00 | 0.00 | 0.00 | 38 | 1012.5 |
| 20260503222513 | 58 | 306 | 6.1 | 12.2 | 0.00 | 0.00 | 0.00 | 39 | 1012.6 |
| 20260503222012 | 58 | 0 | 6.1 | 11.3 | 0.00 | 0.00 | 0.00 | 39 | 1012.6 |
| 20260503221535 | 58 | 345 | 7.8 | 11.3 | 0.00 | 0.00 | 0.00 | 39 | 1012.6 |
| 20260503221012 | 59 | 306 | 5.2 | 10.4 | 0.00 | 0.00 | 0.00 | 39 | 1012.5 |
| 20260503220513 | 59 | 0 | 1.7 | 11.3 | 0.00 | 0.00 | 0.00 | 40 | 1012.6 |
| 20260503220037 | 59 | 0 | 6.1 | 11.3 | 0.00 | 0.00 | 0.00 | 38 | 1012.6 |
| 20260503215515 | 59 | 297 | 7.0 | 17.4 | 0.00 | 0.00 | 0.00 | 38 | 1012.6 |
| 20260503215012 | 60 | 331 | 7.8 | 17.4 | 0.00 | 0.00 | 0.00 | 38 | 1012.6 |
| 20260503214531 | 60 | 339 | 7.8 | 17.4 | 0.00 | 0.00 | 0.00 | 38 | 1012.5 |
| 20260503214014 | 60 | 309 | 8.7 | 13.9 | 0.00 | 0.00 | 0.00 | 37 | 1012.5 |
| 20260503213513 | 60 | 325 | 7.8 | 17.4 | 0.00 | 0.00 | 0.00 | 38 | 1012.5 |
| 20260503213047 | 59 | 333 | 12.2 | 17.4 | 0.00 | 0.00 | 0.00 | 38 | 1012.4 |
| 20260503212513 | 58 | 332 | 7.8 | 16.5 | 0.00 | 0.00 | 0.00 | 41 | 1012.4 |
| 20260503212012 | 59 | 301 | 8.7 | 19.1 | 0.00 | 0.00 | 0.00 | 39 | 1012.5 |
| 20260503211533 | 59 | 334 | 9.6 | 19.1 | 0.00 | 0.00 | 0.00 | 38 | 1012.4 |
| 20260503211011 | 58 | 330 | 10.4 | 15.6 | 0.00 | 0.00 | 0.00 | 39 | 1012.5 |
| 20260503210513 | 59 | 321 | 8.7 | 13.9 | 0.00 | 0.00 | 0.00 | 39 | 1012.6 |
| 20260503210035 | 59 | 333 | 4.3 | 10.4 | 0.00 | 0.00 | 0.00 | 40 | 1012.5 |
| 20260503205517 | 59 | 318 | 4.3 | 16.5 | 0.00 | 0.00 | 0.00 | 39 | 1012.5 |
| 20260503205015 | 60 | 321 | 4.3 | 16.5 | 0.00 | 0.00 | 0.00 | 40 | 1012.5 |
| 20260503204550 | 59 | 290 | 8.7 | 17.4 | 0.00 | 0.00 | 0.00 | 40 | 1012.5 |
| 20260503204013 | 59 | 304 | 9.6 | 17.4 | 0.00 | 0.00 | 0.00 | 40 | 1012.4 |
| 20260503203512 | 58 | 352 | 12.2 | 17.4 | 0.00 | 0.00 | 0.00 | 40 | 1012.5 |
| 20260503203035 | 58 | 302 | 9.6 | 16.5 | 0.00 | 0.00 | 0.00 | 40 | 1012.5 |
| 20260503202513 | 58 | 332 | 7.0 | 15.6 | 0.00 | 0.00 | 0.00 | 41 | 1012.6 |
| 20260503202013 | 58 | 315 | 9.6 | 15.6 | 0.00 | 0.00 | 0.00 | 40 | 1012.6 |
| 20260503201530 | 58 | 328 | 9.6 | 16.5 | 0.00 | 0.00 | 0.00 | 39 | 1012.6 |
| 20260503201013 | 58 | 351 | 8.7 | 20.9 | 0.00 | 0.00 | 0.00 | 39 | 1012.7 |
| 20260503200513 | 58 | 346 | 8.7 | 20.9 | 0.00 | 0.00 | 0.00 | 39 | 1012.7 |
| 20260503200030 | 58 | 315 | 13.0 | 20.9 | 0.00 | 0.00 | 0.00 | 39 | 1012.9 |
| 20260503195512 | 58 | 308 | 7.0 | 16.5 | 0.00 | 0.00 | 0.00 | 40 | 1012.8 |
| 20260503195013 | 58 | 360 | 6.1 | 16.5 | 0.00 | 0.00 | 0.00 | 40 | 1012.9 |
| 20260503194530 | 58 | 312 | 7.8 | 15.6 | 0.00 | 0.00 | 0.00 | 39 | 1013.1 |
| 20260503194014 | 57 | 0 | 6.1 | 15.6 | 0.00 | 0.00 | 0.00 | 42 | 1013.1 |
| 20260503193514 | 58 | 15 | 11.3 | 15.6 | 0.00 | 0.00 | 0.00 | 39 | 1013.2 |
| 20260503193030 | 58 | 316 | 7.8 | 13.9 | 0.00 | 0.00 | 0.00 | 39 | 1013.3 |
| 20260503192517 | 58 | 336 | 8.7 | 17.4 | 0.00 | 0.00 | 0.00 | 42 | 1013.3 |
| 20260503192014 | 57 | 303 | 7.8 | 17.4 | 0.00 | 0.00 | 0.00 | 41 | 1013.3 |
| 20260503191537 | 56 | 360 | 9.6 | 17.4 | 0.00 | 0.00 | 0.00 | 41 | 1013.4 |
| 20260503191016 | 56 | 325 | 5.2 | 15.6 | 0.00 | 0.00 | 0.00 | 41 | 1013.4 |
| 20260503190514 | 56 | 308 | 9.6 | 21.7 | 0.00 | 0.00 | 0.00 | 40 | 1013.5 |
| 20260503190033 | 56 | 331 | 9.6 | 21.7 | 0.00 | 0.00 | 0.00 | 39 | 1013.5 |
| 20260503185516 | 57 | 319 | 12.2 | 21.7 | 0.00 | 0.00 | 0.00 | 38 | 1013.5 |
| 20260503185013 | 58 | 352 | 8.7 | 16.5 | 0.00 | 0.00 | 0.00 | 40 | 1013.6 |
| 20260503184604 | 57 | 360 | 6.1 | 14.8 | 0.00 | 0.00 | 0.00 | 40 | 1013.7 |
| 20260503184018 | 57 | 9 | 10.4 | 14.8 | 0.00 | 0.00 | 0.00 | 40 | 1013.7 |
| 20260503183514 | 58 | 297 | 7.0 | 13.0 | 0.00 | 0.00 | 0.00 | 41 | 1013.8 |
| 20260503183042 | 57 | 338 | 4.3 | 17.4 | 0.00 | 0.00 | 0.00 | 39 | 1013.8 |
| 20260503182515 | 57 | 351 | 2.6 | 17.4 | 0.00 | 0.00 | 0.00 | 40 | 1013.7 |
| 20260503182016 | 57 | 36 | 8.7 | 17.4 | 0.00 | 0.00 | 0.00 | 40 | 1013.7 |
| 20260503181532 | 56 | 0 | 1.7 | 14.8 | 0.00 | 0.00 | 0.00 | 39 | 1013.8 |
| 20260503181015 | 56 | 327 | 9.6 | 14.8 | 0.00 | 0.00 | 0.00 | 40 | 1013.8 |
| 20260503180514 | 56 | 5 | 4.3 | 16.5 | 0.00 | 0.00 | 0.00 | 42 | 1013.9 |
| 20260503180033 | 55 | 331 | 4.3 | 19.1 | 0.00 | 0.00 | 0.00 | 41 | 1013.8 |
| 20260503175520 | 55 | 352 | 10.4 | 19.1 | 0.00 | 0.00 | 0.00 | 39 | 1013.9 |
| 20260503175013 | 55 | 339 | 11.3 | 19.1 | 0.00 | 0.00 | 0.00 | 41 | 1014.0 |
| 20260503174541 | 55 | 27 | 5.2 | 15.6 | 0.00 | 0.00 | 0.00 | 39 | 1014.0 |
| 20260503174017 | 55 | 0 | 5.2 | 15.6 | 0.00 | 0.00 | 0.00 | 40 | 1014.0 |
| 20260503173516 | 55 | 13 | 10.4 | 16.5 | 0.00 | 0.00 | 0.00 | 41 | 1014.0 |
| 20260503173030 | 54 | 326 | 7.8 | 16.5 | 0.00 | 0.00 | 0.00 | 43 | 1014.1 |
| 20260503172513 | 54 | 360 | 9.6 | 16.5 | 0.00 | 0.00 | 0.00 | 44 | 1014.2 |
| 20260503172015 | 54 | 69 | 7.8 | 24.3 | 0.00 | 0.00 | 0.00 | 40 | 1014.1 |
| 20260503171533 | 54 | 321 | 9.6 | 24.3 | 0.00 | 0.00 | 0.00 | 42 | 1014.3 |
| 20260503171018 | 54 | 360 | 11.3 | 24.3 | 0.00 | 0.00 | 0.00 | 40 | 1014.0 |
| 20260503170515 | 54 | 360 | 7.0 | 16.5 | 0.00 | 0.00 | 0.00 | 42 | 1014.5 |
| 20260503151012 | 49 | 350 | 7.0 | 20.0 | 0.00 | 0.00 | 0.00 | 49 | 1015.5 |
| 20260503150514 | 49 | 360 | 13.0 | 20.0 | 0.00 | 0.00 | 0.00 | 47 | 1015.4 |